Location: Asheville, NC
(35.6000°N, 82.5500°W)
Time: 18:20:36
(UTC-04:00)

UWE-3 - Pass Details

Date: 08 January 2018
Orbit: 584 x 685 km, 97.6° (Epoch: 19 July)

Event Time Altitude Azimuth Distance (km) Brightness Sun altitude
Rises 07:00:39 0° 34° (NE) 3,035 ? -8.2°
Reaches altitude 10° 07:03:50 10° 57° (ENE) 2,125 ? -7.6°
Maximum altitude 07:06:30 15° 92° (E) 1,804 ? -7.1°
Drops below altitude 10° 07:09:10 10° 128° (SE) 2,124 ? -6.6°
Sets 07:12:19 0° 151° (SSE) 3,032 ? -6.0°
